Location: Asheville, NC
(35.6000°N, 82.5500°W)
Time: 10:29:50
(UTC-04:00)

Vanguard 3 - Pass Details

Date: 17 March 2018
Orbit: 508 x 3264 km, 33.3° (Epoch: 18 June)

Event Time Altitude Azimuth Distance (km) Brightness Sun altitude
Rises 16:03:17 0° 281° (W) 5,902 12.0 40.1°
Reaches altitude 10° 16:09:27 10° 265° (W) 4,278 11.7 39.2°
Maximum altitude 16:15:35 17° 230° (SW) 3,082 11.7 38.2°
Drops below altitude 10° 16:20:12 10° 193° (SSW) 3,041 10.8 37.4°
Sets 16:23:33 0° 172° (S) 3,599 10.8 36.9°
